SCP
0 0 -0 -0 -0 -0 0 0 0 0 0 0 0 0 0 0 0 0 0 0 0 0 0 0 0 0 0 0 0 0 0 0 0 0 0 0 0 0 0 0 0 0 0 -0
0 0 -0 -0 -0 0 0 0 0 0 0 0 0 0 0 0 0 0 0 0 0 0 0 0 0 0 0 0 0 0 0 0 0 0 0 0 0 0 0 0 0 0 0 0
0 -0 -0 -0 -0 -0 0 0 0 0 0 0 0 0 0 0 0 0 0 0 0 0 0 0 0 0 0 0 0 0 0 0 0 0 0 0 0 0 0 0 0 0 0 -0
0 0 -0 -0 -0 0 0 0 0 0 0 0 0 0 0 0 0 0 0 0 0 0 0 0 0 0 0 0 0 0 0 0 0 0 0 0 0 0 0 0 0 0 0 0
0 0 0 0 -0 0 0 0 0 0 0 0 0 0 0 0 0 0 0 0 0 0 0 0 0 0 0 0 0 0 0 0 0 0 0 0 0 0 0 -0 0 -0 0 0
0 0 0 0 0 0 0 0 0 0 0 0 0 0 0 0 0 0 0 0 0 0 0 0 0 0 0 0 0 0 0 0 0 0 0 0 0 0 0 0 0 -0 0 -0
0 0 0 0 0 0 -0 0 0 0 0 0 0 0 0 0 0 0 0 0 0 0 0 0 0 0 0 0 0 0 0 0 0 0 0 0 0 0 0 0 0 0 0 0
0 0 0 0 0 0 0 0 0 0 0 0 0 0 0 0 0 0 0 0 0 0 0 0 0 0 0 0 0 0 0 0 0 0 0 0 0 0 0 0 0 0 0 0
0 0 0 0 0 0 0 0 0 0 0 0 0 0 0 0 0 0 0 0 0 0 0 0 0 0 0 0 0 0 0 0 0 0 0 0 0 0 0 0 0 0 1 0
0 0 0 0 0 0 0 0 0 0 0 0 0 0 0 0 0 0 0 0 0 0 0 0 0 0 0 0 0 0 0 0 0 0 0 0 0 1 0 0 0 0 0 0
0 0 0 0 0 0 0 0 0 0 0 0 0 0 0 0 0 0 0 0 0 0 0 0 0 0 0 0 0 0 0 0 0 0 0 0 0 1 2 1 0 0 0 0
0 0 0 0 0 0 0 0 0 0 0 0 0 0 0 0 0 0 0 0 0 0 0 0 0 0 0 0 0 0 0 0 0 0 0 0 0 0 0 0 1 0 1 0
0 0 0 0 0 0 0 0 0 0 0 0 0 0 0 -0 -0 -0 0 0 0 0 0 0 0 0 0 0 0 0 0 0 0 0 0 0 0 0 0 0 0 0 0 0
0 0 0 0 0 0 0 0 0 0 0 0 0 0 0 0 0 0 0 0 0 0 0 0 0 0 0 0 0 0 0 0 0 0 0 0 -0 0 0 0 0 0 0 0
0 0 0 -0 0 0 0 0 0 0 -0 0 0 -0 -0 0 0 0 0 0 0 0 0 0 0 0 0 0 0 0 0 0 0 0 0 0 0 0 0 -0 0 0 0 0
0 0 0 -0 0 0 0 0 0 0 0 0 0 -0 -0 -0 0 0 0 0 0 0 0 0 0 0 0 0 0 0 0 0 0 0 0 0 0 0 0 0 -0 -0 0 0
0 0 -0 -0 0 0 0 0 0 0 -0 0 -0 -0 0 0 0 0 0 0 0 0 0 0 0 0 0 0 0 0 0 0 0 0 0 0 0 0 0 0 0 0 -0 0
-0 0 0 -0 0 0 -0 -0 0 0 0 0 0 0 0 0 0 0 0 0 0 0 0 0 0 0 0 0 0 0 0 0 0 0 0 0 0 0 0 0 0 0 0 0
0 0 0 0 0 -0 0 0 0 0 0 0 0 0 0 0 0 0 0 0 0 0 0 0 0 0 0 0 0 0 0 0 0 0 0 0 0 0 0 0 0 0 0 0
0 0 0 0 0 0 0 0 -0 0 0 0 0 0 0 0 0 0 0 0 0 0 0 0 0 0 0 0 0 -0 0 0 0 0 0 0 0 0 0 0 0 0 1 1
0 0 0 0 -0 0 -0 -0 -0 0 0 0 0 0 0 0 0 0 0 0 0 0 0 0 0 0 0 0 0 0 0 0 0 0 0 0 0 0 0 0 0 0 0 1
0 0 0 0 0 -0 -0 -0 -0 0 0 0 0 0 0 0 0 0 0 0 0 0 0 0 0 0 0 -0 0 0 0 0 0 0 -0 0 0 0 0 0 0 0 0 0
0 0 0 -0 -0 -0 -0 0 0 -0 0 0 0 0 0 0 0 0 0 0 0 0 0 0 0 0 0 -0 0 0 0 0 0 0 -0 0 0 0 0 0 0 0 0 0
0 0 -0 -0 -0 0 -0 -0 -0 -0 0 -0 0 0 0 0 0 0 0 0 0 0 0 0 0 -0 -0 -0 0 0 0 0 0 -0 -0 0 0 0 0 0 0 0 0 0
0 0 0 -0 -0 0 0 -0 -0 0 0 0 0 0 0 0 0 0 0 0 0 0 0 0 0 -0 0 0 0 0 -0 -0 0 0 0 0 0 0 0 0 0 0 0 0
0 0 -0 -0 0 0 -0 -0 -0 -0 0 0 0 0 0 0 0 0 0 0 0 0 0 0 0 -0 -0 0 0 0 0 0 0 0 0 0 0 0 0 0 0 0 0 0
0 0 0 0 -0 -0 -0 -0 0 0 0 0 0 0 0 0 0 0 0 0 0 0 0 -0 0 -0 -0 -0 0 0 0 0 0 0 0 0 0 0 0 0 0 0 0 0
Wind_Speed_500mb
56 58 59 61 59 52 24 5 3 20 2 4 4 3 4 11 9 17 6 1 4 5 7 3 4 9 3 3 8 13 13 6 17 31 5 6 26 37 32 17 15 7 10 19
58 60 58 55 54 50 35 7 6 18 2 3 4 3 3 9 14 14 13 10 8 7 6 2 3 4 4 20 2 5 15 10 8 9 8 6 12 16 21 14 7 24 24 20
61 63 61 55 47 39 23 7 1 15 22 12 4 7 7 5 14 8 12 13 5 6 6 10 5 8 5 22 11 9 10 8 11 12 3 1 14 19 28 32 20 28 24 36
59 63 63 58 47 31 14 11 5 5 5 10 9 2 5 6 10 16 25 6 20 9 5 3 9 13 12 5 14 8 5 10 8 12 15 16 23 18 24 27 38 23 37 17
57 62 63 58 51 33 24 9 5 6 4 3 1 8 6 6 7 10 9 9 21 15 6 10 8 18 5 6 13 14 10 2 3 9 13 7 15 29 29 35 25 32 27 16
55 60 57 54 50 41 22 17 13 4 5 3 2 4 5 10 10 6 16 15 10 11 7 28 33 29 33 24 13 9 10 6 3 11 4 13 15 23 35 32 32 31 19 27
51 54 52 48 44 41 34 27 12 7 4 5 6 3 3 3 3 6 13 12 6 7 37 38 18 19 29 25 30 28 12 7 5 9 10 23 5 6 13 27 23 29 16 20
43 47 47 41 37 33 27 29 17 9 3 4 2 6 4 3 3 6 8 1 12 23 15 7 11 9 9 16 25 27 30 11 9 10 16 12 11 6 4 1 9 24 22 27
40 43 45 35 30 27 22 23 20 8 3 2 3 4 6 4 6 4 2 5 12 7 5 6 10 12 9 11 9 6 14 22 11 6 20 27 13 1 2 14 12 23 27 27
39 40 43 33 29 26 21 17 18 9 4 6 9 6 3 4 4 3 4 14 5 11 4 11 11 15 5 13 20 12 10 9 28 24 17 14 2 24 6 16 1 33 31 34
36 36 39 32 25 22 20 15 16 15 7 15 13 12 10 7 6 3 5 3 2 2 4 5 2 6 4 10 15 13 15 12 12 19 18 29 27 14 10 14 14 26 32 33
36 36 34 28 24 22 22 15 16 19 11 11 17 23 21 19 11 5 3 3 2 3 3 3 4 6 6 5 14 5 14 9 6 8 4 7 9 14 13 21 28 29 37 42
35 36 32 26 23 23 22 23 20 22 13 16 6 2 3 7 37 34 7 5 5 3 3 2 4 10 4 6 7 9 5 6 8 6 7 9 18 6 21 32 28 34 32 40
38 37 31 24 20 20 20 19 17 11 7 6 3 7 6 19 20 23 28 26 15 10 5 8 8 8 7 5 7 8 9 16 6 11 9 19 22 24 34 41 29 34 33 35
41 39 27 20 19 14 14 10 7 5 7 7 18 18 13 7 10 11 19 36 36 26 14 13 12 13 10 17 10 18 15 10 7 4 7 10 22 36 40 26 30 32 34 40
43 34 21 14 13 8 9 1 4 6 9 9 7 11 10 9 16 16 24 32 32 28 16 17 21 25 15 9 17 35 32 21 19 5 19 28 44 36 17 29 28 27 26 27
35 22 9 7 5 6 1 1 7 7 12 7 10 10 7 13 21 17 17 28 24 25 18 19 31 19 31 23 30 43 24 23 30 26 38 34 23 36 35 22 24 20 24 28
17 3 2 3 4 9 11 10 7 5 9 4 5 7 11 9 8 12 11 11 13 14 15 12 21 21 32 26 54 61 65 65 68 63 41 43 40 44 29 20 15 20 14 26
5 5 4 10 5 5 10 10 7 6 5 3 3 4 6 15 10 7 9 7 6 12 8 22 15 17 22 22 42 50 50 55 62 43 38 36 34 35 28 24 14 15 16 11
6 5 5 3 5 10 9 3 1 2 3 7 7 8 8 12 5 5 8 10 6 7 12 9 13 29 71 68 53 47 55 60 52 35 41 26 25 26 25 18 14 15 14 10
3 4 3 6 8 4 2 3 3 2 6 9 11 17 11 13 5 5 8 6 6 6 2 5 7 9 11 28 68 73 57 47 49 44 33 22 25 26 21 12 19 18 17 21
4 4 4 3 3 2 2 3 3 5 5 7 8 15 19 6 5 4 9 7 5 10 1 6 6 6 27 52 45 34 66 67 59 39 31 27 27 26 24 26 30 25 21 22
3 3 3 4 1 1 4 7 4 5 7 9 23 18 6 3 4 9 5 7 9 17 4 6 8 24 32 42 58 61 45 51 60 53 30 27 29 30 22 20 14 26 29 22
2 2 7 2 2 2 3 6 11 19 20 37 36 19 4 5 3 3 7 8 9 6 6 6 18 59 75 48 16 34 37 33 34 36 36 34 31 24 16 16 24 25 29 18
2 0 3 1 5 9 13 13 23 24 27 24 23 14 8 3 3 3 7 10 8 8 6 9 58 68 49 49 36 32 26 25 25 25 28 28 23 15 12 10 17 21 18 12
1 2 3 6 11 17 15 21 25 20 29 22 4 5 5 3 3 2 8 13 8 9 14 52 57 64 65 61 52 51 40 32 23 14 8 7 8 7 2 2 6 9 9 4
2 2 5 12 9 16 20 33 28 30 16 5 4 7 9 8 7 8 9 11 11 30 42 55 70 70 65 60 62 55 44 42 37 30 22 15 15 11 8 4 5 7 9 11
Wind_Direction_500mb
360 359 359 357 356 4 18 71 87 356 86 38 33 81 334 352 343 13 19 100 45 17 12 31 122 148 109 10 192 160 183 193 219 217 74 271 220 217 216 233 220 239 283 262
1 358 0 1 359 2 7 34 6 15 76 81 50 357 66 33 19 25 17 31 19 8 40 165 50 33 70 24 73 173 168 205 200 179 153 166 214 197 225 243 255 236 251 261
2 0 0 3 3 1 8 12 340 24 57 66 42 9 18 28 20 63 1 10 36 28 40 26 78 16 358 346 23 12 199 179 243 249 116 81 196 199 207 214 228 244 240 257
2 1 360 3 7 6 15 42 67 39 22 47 73 36 7 10 13 8 16 66 35 359 7 31 41 13 334 354 6 10 305 233 205 252 251 250 253 235 194 210 229 218 251 223
1 2 1 3 13 16 41 53 26 34 60 339 84 10 56 59 355 350 25 35 345 5 74 48 338 352 349 351 338 350 357 284 290 274 181 207 236 239 223 221 232 240 262 271
1 4 4 6 16 26 52 36 18 26 6 46 198 70 74 73 338 61 84 358 340 357 20 316 289 273 266 268 305 309 315 301 273 255 310 297 246 241 217 213 220 236 222 241
1 7 9 11 16 26 38 31 25 11 37 28 53 62 4 70 104 306 322 355 347 345 318 313 283 257 254 249 250 227 267 294 281 282 303 247 272 275 246 235 255 226 256 309
357 4 9 8 12 18 25 34 34 31 72 17 85 32 26 331 300 198 259 351 332 313 313 285 284 238 254 238 231 207 216 225 240 247 247 295 258 51 88 150 132 29 335 326
356 358 3 0 6 11 18 20 25 24 4 162 81 3 354 346 338 319 250 309 330 331 250 212 225 232 240 225 174 81 179 230 249 178 237 239 220 123 209 187 209 9 346 332
353 353 354 0 356 6 14 18 19 14 319 222 200 213 190 211 216 273 306 338 358 3 216 214 223 231 262 232 231 187 169 186 214 220 243 247 6 323 283 198 104 329 336 324
350 351 352 354 353 353 3 353 352 5 298 272 239 222 209 185 207 258 348 273 86 314 189 253 231 246 251 266 249 262 232 203 201 208 221 242 6 323 302 356 326 317 321 320
347 347 349 345 344 345 347 350 332 330 288 267 276 261 247 238 232 159 325 350 298 314 273 219 278 260 264 303 243 182 238 258 260 249 195 71 31 67 16 342 318 329 320 323
341 340 341 339 327 333 338 337 345 351 324 311 323 98 72 211 235 237 262 258 235 235 141 304 284 264 251 249 231 302 225 345 257 283 135 331 283 151 356 342 326 324 324 319
333 332 331 328 320 322 328 336 343 352 310 304 265 126 271 267 258 247 245 246 256 254 297 277 256 257 210 262 313 274 296 320 290 271 281 331 154 357 342 331 330 334 331 328
326 323 320 317 311 319 324 333 2 20 11 312 299 314 150 303 230 231 236 236 241 248 245 230 235 244 257 252 273 260 239 259 238 278 83 326 295 316 328 332 338 341 333 332
322 320 307 292 308 341 342 46 19 19 6 326 305 283 250 232 226 260 265 247 232 225 218 231 233 229 222 247 253 247 240 259 251 262 317 313 305 314 350 336 342 345 351 345
320 316 295 315 12 358 8 32 325 345 353 329 295 291 288 291 291 268 256 240 218 213 230 229 233 215 215 245 250 239 234 250 260 286 315 309 319 316 321 328 340 354 29 27
326 4 15 56 42 81 56 25 355 349 279 283 286 291 319 341 299 280 258 241 219 223 235 236 227 235 226 244 243 249 250 258 270 276 288 279 297 309 318 332 333 330 348 28
33 32 60 120 67 36 336 331 326 284 238 298 259 278 315 306 289 278 298 268 247 222 236 229 224 219 224 238 243 238 241 245 254 265 265 288 300 294 310 326 320 318 338 328
45 42 71 62 358 339 346 40 314 233 235 235 252 212 240 261 263 337 296 245 246 239 221 186 229 241 242 244 242 238 234 237 242 242 267 279 291 309 323 328 329 304 311 342
33 41 46 345 341 9 6 320 282 185 251 228 246 241 258 271 187 238 229 279 272 268 115 250 238 246 256 274 246 236 237 238 240 239 242 265 282 313 310 312 343 334 320 343
15 17 50 10 19 353 321 309 265 235 276 247 240 293 280 219 214 229 238 258 246 251 256 237 259 253 283 296 287 264 241 240 242 245 246 256 275 294 278 282 305 321 320 313
79 56 46 337 8 314 33 11 315 289 268 283 321 322 268 146 255 250 272 262 256 347 284 259 254 284 282 248 262 278 258 235 232 233 239 263 275 285 279 281 279 324 320 329
53 85 2 314 73 298 331 284 311 306 288 306 316 300 261 191 208 300 274 289 309 312 286 279 294 309 316 329 256 215 211 206 213 225 232 249 267 284 269 261 284 303 312 318
68 141 33 224 324 307 316 312 310 311 302 313 309 277 247 169 251 229 284 320 319 341 302 279 309 326 15 41 59 101 141 165 172 199 221 244 261 253 273 271 280 293 297 288
248 224 298 306 306 337 324 316 304 323 318 316 249 276 267 265 230 284 12 336 341 307 302 338 2 13 29 34 54 74 90 99 109 125 150 197 190 216 254 330 328 311 297 249
262 62 325 335 291 282 307 313 316 319 320 348 322 349 356 311 15 24 359 357 347 331 359 17 23 26 36 41 47 56 66 74 78 77 77 79 96 102 139 147 83 82 91 93
Wind_Speed_850mb
56 58 59 61 59 52 24 5 3 20 2 4 4 3 4 11 9 17 6 1 4 5 7 3 4 9 3 3 8 13 13 6 17 31 5 6 26 37 32 17 15 7 10 19
58 60 58 55 54 50 35 7 6 18 2 3 4 3 3 9 14 14 13 10 8 7 6 2 3 4 4 20 2 5 15 10 8 9 8 6 12 16 21 14 7 24 24 20
61 63 61 55 47 39 23 7 1 15 22 12 4 7 7 5 14 8 12 13 5 6 6 10 5 8 5 22 11 9 10 8 11 12 3 1 14 19 28 32 20 28 24 36
59 63 63 58 47 31 14 11 5 5 5 10 9 2 5 6 10 16 25 6 20 9 5 3 9 13 12 5 14 8 5 10 8 12 15 16 23 18 24 27 38 23 37 17
57 62 63 58 51 33 24 9 5 6 4 3 1 8 6 6 7 10 9 9 21 15 6 10 8 18 5 6 13 14 10 2 3 9 13 7 15 29 29 35 25 32 27 16
55 60 57 54 50 41 22 17 13 4 5 3 2 4 5 10 10 6 16 15 10 11 7 28 33 29 33 24 13 9 10 6 3 11 4 13 15 23 35 32 32 31 19 27
51 54 52 48 44 41 34 27 12 7 4 5 6 3 3 3 3 6 13 12 6 7 37 38 18 19 29 25 30 28 12 7 5 9 10 23 5 6 13 27 23 29 16 20
43 47 47 41 37 33 27 29 17 9 3 4 2 6 4 3 3 6 8 1 12 23 15 7 11 9 9 16 25 27 30 11 9 10 16 12 11 6 4 1 9 24 22 27
40 43 45 35 30 27 22 23 20 8 3 2 3 4 6 4 6 4 2 5 12 7 5 6 10 12 9 11 9 6 14 22 11 6 20 27 13 1 2 14 12 23 27 27
39 40 43 33 29 26 21 17 18 9 4 6 9 6 3 4 4 3 4 14 5 11 4 11 11 15 5 13 20 12 10 9 28 24 17 14 2 24 6 16 1 33 31 34
36 36 39 32 25 22 20 15 16 15 7 15 13 12 10 7 6 3 5 3 2 2 4 5 2 6 4 10 15 13 15 12 12 19 18 29 27 14 10 14 14 26 32 33
36 36 34 28 24 22 22 15 16 19 11 11 17 23 21 19 11 5 3 3 2 3 3 3 4 6 6 5 14 5 14 9 6 8 4 7 9 14 13 21 28 29 37 42
35 36 32 26 23 23 22 23 20 22 13 16 6 2 3 7 37 34 7 5 5 3 3 2 4 10 4 6 7 9 5 6 8 6 7 9 18 6 21 32 28 34 32 40
38 37 31 24 20 20 20 19 17 11 7 6 3 7 6 19 20 23 28 26 15 10 5 8 8 8 7 5 7 8 9 16 6 11 9 19 22 24 34 41 29 34 33 35
41 39 27 20 19 14 14 10 7 5 7 7 18 18 13 7 10 11 19 36 36 26 14 13 12 13 10 17 10 18 15 10 7 4 7 10 22 36 40 26 30 32 34 40
43 34 21 14 13 8 9 1 4 6 9 9 7 11 10 9 16 16 24 32 32 28 16 17 21 25 15 9 17 35 32 21 19 5 19 28 44 36 17 29 28 27 26 27
35 22 9 7 5 6 1 1 7 7 12 7 10 10 7 13 21 17 17 28 24 25 18 19 31 19 31 23 30 43 24 23 30 26 38 34 23 36 35 22 24 20 24 28
17 3 2 3 4 9 11 10 7 5 9 4 5 7 11 9 8 12 11 11 13 14 15 12 21 21 32 26 54 61 65 65 68 63 41 43 40 44 29 20 15 20 14 26
5 5 4 10 5 5 10 10 7 6 5 3 3 4 6 15 10 7 9 7 6 12 8 22 15 17 22 22 42 50 50 55 62 43 38 36 34 35 28 24 14 15 16 11
6 5 5 3 5 10 9 3 1 2 3 7 7 8 8 12 5 5 8 10 6 7 12 9 13 29 71 68 53 47 55 60 52 35 41 26 25 26 25 18 14 15 14 10
3 4 3 6 8 4 2 3 3 2 6 9 11 17 11 13 5 5 8 6 6 6 2 5 7 9 11 28 68 73 57 47 49 44 33 22 25 26 21 12 19 18 17 21
4 4 4 3 3 2 2 3 3 5 5 7 8 15 19 6 5 4 9 7 5 10 1 6 6 6 27 52 45 34 66 67 59 39 31 27 27 26 24 26 30 25 21 22
3 3 3 4 1 1 4 7 4 5 7 9 23 18 6 3 4 9 5 7 9 17 4 6 8 24 32 42 58 61 45 51 60 53 30 27 29 30 22 20 14 26 29 22
2 2 7 2 2 2 3 6 11 19 20 37 36 19 4 5 3 3 7 8 9 6 6 6 18 59 75 48 16 34 37 33 34 36 36 34 31 24 16 16 24 25 29 18
2 0 3 1 5 9 13 13 23 24 27 24 23 14 8 3 3 3 7 10 8 8 6 9 58 68 49 49 36 32 26 25 25 25 28 28 23 15 12 10 17 21 18 12
1 2 3 6 11 17 15 21 25 20 29 22 4 5 5 3 3 2 8 13 8 9 14 52 57 64 65 61 52 51 40 32 23 14 8 7 8 7 2 2 6 9 9 4
2 2 5 12 9 16 20 33 28 30 16 5 4 7 9 8 7 8 9 11 11 30 42 55 70 70 65 60 62 55 44 42 37 30 22 15 15 11 8 4 5 7 9 11
Wind_Direction_850mb
360 359 359 357 356 4 18 71 87 356 86 38 33 81 334 352 343 13 19 100 45 17 12 31 122 148 109 10 192 160 183 193 219 217 74 271 220 217 216 233 220 239 283 262
1 358 0 1 359 2 7 34 6 15 76 81 50 357 66 33 19 25 17 31 19 8 40 165 50 33 70 24 73 173 168 205 200 179 153 166 214 197 225 243 255 236 251 261
2 0 0 3 3 1 8 12 340 24 57 66 42 9 18 28 20 63 1 10 36 28 40 26 78 16 358 346 23 12 199 179 243 249 116 81 196 199 207 214 228 244 240 257
2 1 360 3 7 6 15 42 67 39 22 47 73 36 7 10 13 8 16 66 35 359 7 31 41 13 334 354 6 10 305 233 205 252 251 250 253 235 194 210 229 218 251 223
1 2 1 3 13 16 41 53 26 34 60 339 84 10 56 59 355 350 25 35 345 5 74 48 338 352 349 351 338 350 357 284 290 274 181 207 236 239 223 221 232 240 262 271
1 4 4 6 16 26 52 36 18 26 6 46 198 70 74 73 338 61 84 358 340 357 20 316 289 273 266 268 305 309 315 301 273 255 310 297 246 241 217 213 220 236 222 241
1 7 9 11 16 26 38 31 25 11 37 28 53 62 4 70 104 306 322 355 347 345 318 313 283 257 254 249 250 227 267 294 281 282 303 247 272 275 246 235 255 226 256 309
357 4 9 8 12 18 25 34 34 31 72 17 85 32 26 331 300 198 259 351 332 313 313 285 284 238 254 238 231 207 216 225 240 247 247 295 258 51 88 150 132 29 335 326
356 358 3 0 6 11 18 20 25 24 4 162 81 3 354 346 338 319 250 309 330 331 250 212 225 232 240 225 174 81 179 230 249 178 237 239 220 123 209 187 209 9 346 332
353 353 354 0 356 6 14 18 19 14 319 222 200 213 190 211 216 273 306 338 358 3 216 214 223 231 262 232 231 187 169 186 214 220 243 247 6 323 283 198 104 329 336 324
350 351 352 354 353 353 3 353 352 5 298 272 239 222 209 185 207 258 348 273 86 314 189 253 231 246 251 266 249 262 232 203 201 208 221 242 6 323 302 356 326 317 321 320
347 347 349 345 344 345 347 350 332 330 288 267 276 261 247 238 232 159 325 350 298 314 273 219 278 260 264 303 243 182 238 258 260 249 195 71 31 67 16 342 318 329 320 323
341 340 341 339 327 333 338 337 345 351 324 311 323 98 72 211 235 237 262 258 235 235 141 304 284 264 251 249 231 302 225 345 257 283 135 331 283 151 356 342 326 324 324 319
333 332 331 328 320 322 328 336 343 352 310 304 265 126 271 267 258 247 245 246 256 254 297 277 256 257 210 262 313 274 296 320 290 271 281 331 154 357 342 331 330 334 331 328
326 323 320 317 311 319 324 333 2 20 11 312 299 314 150 303 230 231 236 236 241 248 245 230 235 244 257 252 273 260 239 259 238 278 83 326 295 316 328 332 338 341 333 332
322 320 307 292 308 341 342 46 19 19 6 326 305 283 250 232 226 260 265 247 232 225 218 231 233 229 222 247 253 247 240 259 251 262 317 313 305 314 350 336 342 345 351 345
320 316 295 315 12 358 8 32 325 345 353 329 295 291 288 291 291 268 256 240 218 213 230 229 233 215 215 245 250 239 234 250 260 286 315 309 319 316 321 328 340 354 29 27
326 4 15 56 42 81 56 25 355 349 279 283 286 291 319 341 299 280 258 241 219 223 235 236 227 235 226 244 243 249 250 258 270 276 288 279 297 309 318 332 333 330 348 28
33 32 60 120 67 36 336 331 326 284 238 298 259 278 315 306 289 278 298 268 247 222 236 229 224 219 224 238 243 238 241 245 254 265 265 288 300 294 310 326 320 318 338 328
45 42 71 62 358 339 346 40 314 233 235 235 252 212 240 261 263 337 296 245 246 239 221 186 229 241 242 244 242 238 234 237 242 242 267 279 291 309 323 328 329 304 311 342
33 41 46 345 341 9 6 320 282 185 251 228 246 241 258 271 187 238 229 279 272 268 115 250 238 246 256 274 246 236 237 238 240 239 242 265 282 313 310 312 343 334 320 343
15 17 50 10 19 353 321 309 265 235 276 247 240 293 280 219 214 229 238 258 246 251 256 237 259 253 283 296 287 264 241 240 242 245 246 256 275 294 278 282 305 321 320 313
79 56 46 337 8 314 33 11 315 289 268 283 321 322 268 146 255 250 272 262 256 347 284 259 254 284 282 248 262 278 258 235 232 233 239 263 275 285 279 281 279 324 320 329
53 85 2 314 73 298 331 284 311 306 288 306 316 300 261 191 208 300 274 289 309 312 286 279 294 309 316 329 256 215 211 206 213 225 232 249 267 284 269 261 284 303 312 318
68 141 33 224 324 307 316 312 310 311 302 313 309 277 247 169 251 229 284 320 319 341 302 279 309 326 15 41 59 101 141 165 172 199 221 244 261 253 273 271 280 293 297 288
248 224 298 306 306 337 324 316 304 323 318 316 249 276 267 265 230 284 12 336 341 307 302 338 2 13 29 34 54 74 90 99 109 125 150 197 190 216 254 330 328 311 297 249
262 62 325 335 291 282 307 313 316 319 320 348 322 349 356 311 15 24 359 357 347 331 359 17 23 26 36 41 47 56 66 74 78 77 77 79 96 102 139 147 83 82 91 93